OneWeb SL0389

operational
NORAD ID: 50469 Int'l Des: 2021-132 Owner: ONEWEBN Country: UK Constellation: oneweb
LEOCIRCULARPOLARONEWEB_TYPE

About OneWeb SL0389

Description loading...

Live Position

Loading 3D Globe...

Upcoming Passes

Altitude History

Altitude vs Time

uPlot chart will show altitude changes over time

Two-Line Element Set

1 50469U 21132A 25296.58161954 .00000014 00000-0 22464-5 0 9994
2 50469 87.9120 52.9191 0001496 89.2041 270.9262 13.17648548186925
Epoch: Oct 23, 2025 • Age: 12 hours

Current Status

Altitude 1206.4 km
Velocity 7.25 km/s
Sub-Earth Point -32.00°S, 171.91°E
Launch Date Dec 27, 2021
Age 3.8 years
Type internet

Technical Details

Classification Payload
Mass 148.00 kg
Dry Mass 140.00 kg
Total Mass 148.00 kg
Length 1.30 m
Diameter 1.00 m
Span 5.00 m
Shape Trapezoid+2 pan
Manufacturer ONEWUS
Bus Type ARROW
Phase Status In Orbit
Owner/State ONEWEBN/UK

Large Constellations

Loading constellations...